Regional Weather Roundup
Issued by NWS

Home | Current Version | Previous Version | Text Only | Print | Product List | Glossary Off
Versions: 1 2 3 4 5 6 7 8 9 10 11 12 13 14 15 16 17 18 19 20 21 22 23 24 25 26 27 28 29 30 31 32 33 34 35 36 37 38 39 40 41 42 43 44 45 46 47 48 49 50

774
ASUS43 KIND 290509
RWRIN

WEATHER ROUNDUP FOR INDIANA
NATIONAL WEATHER SERVICE INDIANAPOLIS IN
100 AM EDT THU SEP 29 2016

NOTE: "FAIR" INDICATES FEW OR NO CLOUDS BELOW 12,000 FEET WITH NO
SIGNIFICANT WEATHER AND/OR OBSTRUCTIONS TO VISIBILITY.

* - STATION DOES NOT REPORT WEATHER SUCH AS PRECIPITATION OR FOG.

+ - STATION NOT QUALITY CONTROLLED BY THE NATIONAL WEATHER SERVICE.
    USE DATA WITH CAUTION...ESPECIALLY DEWPOINT AND RELATIVE
    HUMIDITY OBSERVATIONS.

INZ001>003-010>013-019-020-290600-
NORTHWEST INDIANA

CITY           SKY/WX    TMP DP  RH WIND       PRES   REMARKS
GARY /AIRPORT/ LGT RAIN  64  57  78 NE17G29   30.05R
KNOX *+        CLOUDY    55  41  58 N9G16     30.01S
LA PORTE +     LGT RAIN  58  58 100 N9        30.03S
MICHIGAN CITY+ LGT RAIN  55  55 100 MISG      30.04S
MONTICELLO +   LGT RAIN  54  50  87 NW7       29.99F
RENSSELAER +   DRIZZLE   55  54  94 NW5       30.02R
VALPARAISO     LGT RAIN  57  53  86 NE9G18    30.03S

$$

LMZ046-743>745-290600-
SOUTHERN LAKE MICHIGAN

STATION/POSITION TIME  TEMP    WIND        PRES    WAVE
                       AIR SEA DIR/SP/G            HT
                 (UTC) (F)     (DEG/KT/KT) (MB)    (FT)
BURNS HARBOR     0440   62      50/ 24/ 28 1016.9F
MICHIGAN CITY    0440   60      20/ 22/ 24   N/A
5NW MICH CITY    0500   61 66   40/ 17/ 25   N/A     7

$$

INZ004-005-014>016-021>024-290600-
NORTH CENTRAL INDIANA

CITY           SKY/WX    TMP DP  RH WIND       PRES   REMARKS
GOSHEN         CLOUDY    56  53  90 N10       29.99F
LOGANSPORT +   DRIZZLE   54  52  94 N3        29.99S
PERU/GRISSOM   LGT RAIN  55  54  94 N5        29.96S
ROCHESTER +    LGT RAIN  55  55 100 NE6       29.98F
SOUTH BEND     LGT RAIN  55  54  96 N10       30.03S
WARSAW +       LGT RAIN  54  52  94 N3        29.99S

$$

INZ006>009-017-018-025>027-290600-
NORTHEAST INDIANA

CITY           SKY/WX    TMP DP  RH WIND       PRES   REMARKS
ANGOLA *+        N/A     55  43  62 CALM      29.98F
AUBURN +       DRIZZLE   54  52  94 N6        29.97F
FORT WAYNE     CLOUDY    55  53  93 N5        29.97F
HUNTINGTON +   MOCLDY    51  50  95 CALM      29.96F FOG
KENDALLVILLE + RAIN      55  55 100 NE3       29.98S

$$

INZ028-029-035-036-043>045-051>053-290600-
WEST CENTRAL INDIANA

CITY           SKY/WX    TMP DP  RH WIND       PRES   REMARKS
CRAWFORDSVL +  CLOUDY    52  52 100 NW7       30.00S
GREENCASTLE +  CLOUDY    54  54 100 CALM      30.00F FOG
LAFAYETTE      NOT AVBL
TERRE HAUTE    CLOUDY    55  50  83 NW3       30.01F

$$

INZ030>032-037>040-046>048-054>057-064-065-290600-
CENTRAL INDIANA

CITY           SKY/WX    TMP DP  RH WIND       PRES   REMARKS
FISHERS *+     CLOUDY    52  52 100 NW5       29.97F
FRANKFORT +    CLOUDY    57  53  86 N7        30.01S
GREENWOOD *+   CLOUDY    55  54  94 W3        29.98S
INDIANAPOLIS   CLOUDY    55  52  89 NW7       29.97F
-EAGLE CREEK   MOCLDY    56  51  84 NW10      29.97S
KOKOMO *+      CLOUDY    54  52  93 N5        29.99R
MARION +       CLOUDY    53  51  94 N3        29.98S
MT COMFORT *+  MOCLDY    52  50  93 NW3       29.98S
SHELBYVILLE    PTCLDY    54  50  86 NW5       29.97R
ZIONSVILLE +   MOCLDY    52  50  92 NW5       29.98F

$$

INZ033-034-041-042-049-050-058-059-290600-
EAST CENTRAL INDIANA

CITY           SKY/WX    TMP DP  RH WIND       PRES   REMARKS
MUNCIE         CLOUDY    55  53  93 N6        29.96S

$$

INZ060-061-067>069-081>083-085>088-290600-
SOUTHWEST INDIANA

CITY           SKY/WX    TMP DP  RH WIND       PRES   REMARKS
EVANSVILLE     CLEAR     54  48  80 W5        30.04F
HUNTINGBURG *+   N/A     50  45  81 W7        30.02S
WASHINGTON +   MOCLDY    53  51  94 MISG      30.01S

$$

INZ062-063-066-070>080-084-089>092-290600-
SOUTH CENTRAL AND SOUTHEAST INDIANA

CITY           SKY/WX    TMP DP  RH WIND       PRES   REMARKS
BLOOMINGTON    MOCLDY    53  49  86 W3        30.00S
MADISON *+     CLOUDY    54  52  94 CALM      30.00S
NORTH VERNON + CLOUDY   N/A N/A N/A W3        29.98S
SEYMOUR +      CLOUDY    55  50  82 CALM      29.98F

$$





USA.gov is the U.S. government's official web portal to all federal, state and local government web resources and services.